SP5XSL-4 Weather Reports


time (UTC)temp
C
wind
direction
speed
KPH
gust
KPH
rain 1hr
cm
rain 24hr
cm
rain mn
cm
humidity
%
barometer
mb
20260506145237 20 173 32.2 40.2 0.00 0.00 0.00 1011.7
20260506144226 21 164 32.2 40.2 0.00 0.00 0.00 1011.7
20260506143307 21 164 20.9 46.7 0.00 0.00 0.00 1012.0
20260506142340 21 187 32.2 54.7 0.00 0.00 0.00 1011.8
20260506141500 21 172 35.4 46.7 0.00 0.00 0.00 1011.8
20260506140635 21 160 35.4 46.7 0.00 0.00 0.00 1011.7
20260506135805 21 143 32.2 32.2 0.00 0.00 0.00 1011.6
20260506134927 21 170 20.9 25.7 0.00 0.00 0.00 1011.5
20260506133951 21 187 35.4 54.7 0.00 0.00 0.00 1011.6
20260506132947 21 193 20.9 25.7 0.00 0.00 0.00 1011.2
20260506132105 21 174 35.4 72.4 0.00 0.00 0.00 1011.3
20260506131127 21 155 17.7 17.7 0.00 0.00 0.00 1011.1
20260506130247 21 169 11.3 14.5 0.00 0.00 0.00 1011.3
20260506125440 21 161 29.0 40.2 0.00 0.00 0.00 1011.3
20260506124615 21 148 14.5 17.7 0.00 0.00 0.00 1011.4
20260506123630 21 176 43.5 54.7 0.00 0.00 0.00 1011.2
20260506122646 21 196 35.4 54.7 0.00 0.00 0.00 1011.2
20260506121840 21 184 35.4 46.7 0.00 0.00 0.00 1011.2
20260506120857 21 117 20.9 25.7 0.00 0.00 0.00 1011.1
20260506115857 21 178 32.2 46.7 0.00 0.00 0.00 1010.9
20260506114916 21 166 40.2 61.2 0.00 0.00 0.00 1011.0
20260506114048 21 167 43.5 54.7 0.00 0.00 0.00 1010.9
20260506113027 22 143 25.7 32.2 0.00 0.00 0.00 1010.9
20260506112017 21 135 20.9 32.2 0.00 0.00 0.00 1011.0
20260506105645 21 193 35.4 46.7 0.00 0.00 0.00 1010.9
20260506104730 20 145 17.7 17.7 0.00 0.00 0.00 1010.9
20260506103835 20 98 17.7 25.7 0.00 0.00 0.00 1010.8
20260506103022 20 85 25.7 32.2 0.00 0.00 0.00 1011.4
20260506102120 20 100 20.9 32.2 0.00 0.00 0.00 1011.3
20260506101315 20 133 11.3 14.5 0.00 0.00 0.00 1011.4
20260506100242 20 79 14.5 17.7 0.00 0.00 0.00 1011.6
20260506095310 19 89 14.5 14.5 0.00 0.00 0.00 1011.4
20260506094312 18 68 11.3 14.5 0.00 0.00 0.00 1011.3
20260506093335 18 171 11.3 17.7 0.00 0.00 0.00 1011.5
20260506092532 18 75 20.9 32.2 0.00 0.00 0.00 1011.7
20260506091545 18 105 0.0 6.4 0.00 0.00 0.00 1011.6
20260506090545 17 69 17.7 32.2 0.00 0.00 0.00 1011.5
20260506085545 17 118 3.2 14.5 0.00 0.00 0.00 1011.7
20260506084712 16 82 14.5 25.7 0.00 0.00 0.00 1011.6
20260506083725 16 86 6.4 14.5 0.00 0.00 0.00 1011.7
20260506082826 17 94 32.2 46.7 0.00 0.00 0.00 1011.9
20260506082021 16 42 17.7 17.7 0.00 0.00 0.00 1011.7
20260506081205 16 69 17.7 25.7 0.00 0.00 0.00 1011.5
20260506080217 15 52 20.9 32.2 0.00 0.00 0.00 1011.8
20260506073519 15 68 17.7 17.7 0.00 0.00 0.00 1012.1
20260506072610 14 77 14.5 17.7 0.00 0.00 0.00 1012.2
20260506071639 14 98 29.0 32.2 0.00 0.00 0.00 1012.2
20260506070659 14 35 20.9 25.7 0.00 0.00 0.00 1012.3
20260506061827 12 35 11.3 14.5 0.00 0.00 0.00 1012.2
20260506061005 11 65 3.2 14.5 0.00 0.00 0.00 1012.4
20260506051210 10 269 25.7 32.2 0.00 0.00 0.00 1013.0
20260506050350 10 22 32.2 40.2 0.00 0.00 0.00 1013.0
20260506044637 10 334 43.5 54.7 0.00 0.00 0.00 1013.2
20260506043808 10 65 14.5 17.7 0.00 0.00 0.00 1012.9
20260506042859 9 44 20.9 25.7 0.00 0.00 0.00 1013.1
20260506042010 9 83 17.7 25.7 0.00 0.00 0.00 1013.0
20260506041027 8 30 25.7 32.2 0.00 0.00 0.00 1013.3
20260506040139 8 83 11.3 14.5 0.00 0.00 0.00 1013.5
20260506035252 8 135 6.4 6.4 0.00 0.00 0.00 1013.6
20260506034419 8 81 14.5 17.7 0.00 0.00 0.00 1013.5
20260506033600 8 85 3.2 6.4 0.00 0.00 0.00 1013.4
20260506032757 8 121 3.2 6.4 0.00 0.00 0.00 1013.5
20260506031835 8 131 6.4 6.4 0.00 0.00 0.00 1013.4
20260506031017 8 40 11.3 14.5 0.00 0.00 0.00 1013.6
20260506030047 8 276 14.5 17.7 0.00 0.00 0.00 1013.5
20260506025110 8 131 6.4 14.5 0.00 0.00 0.00 1013.5
20260506024139 8 100 6.4 6.4 0.00 0.00 0.00 1013.8
20260506023247 8 117 3.2 6.4 0.00 0.00 0.00 1013.7
20260506022246 8 38 6.4 14.5 0.00 0.00 0.00 1013.6
20260506021255 8 102 6.4 6.4 0.00 0.00 0.00 1013.8
20260506020419 8 132 3.2 6.4 0.00 0.00 0.00 1013.7
20260506015510 8 328 17.7 17.7 0.00 0.00 0.00 1013.7
20260506014450 8 78 6.4 14.5 0.00 0.00 0.00 1013.9
20260506013602 8 295 17.7 25.7 0.00 0.00 0.00 1013.9
20260506012750 8 354 17.7 17.7 0.00 0.00 0.00 1014.0
20260506011948 8 359 14.5 17.7 0.00 0.00 0.00 1013.9
20260506011005 8 269 20.9 25.7 0.00 0.00 0.00 1014.1
20260506010110 8 139 3.2 14.5 0.00 0.00 0.00 1014.0
20260506005157 9 104 11.3 14.5 0.00 0.00 0.00 1013.9
20260506004209 9 123 3.2 6.4 0.00 0.00 0.00 1013.9
20260506003319 9 353 14.5 17.7 0.00 0.00 0.00 1013.6
20260506002439 9 160 3.2 6.4 0.00 0.00 0.00 1013.9
20260506001617 9 45 14.5 25.7 0.00 0.00 0.00 1013.7
20260506000623 10 101 11.3 14.5 0.00 0.00 0.00 1013.7
20260505235815 10 41 29.0 32.2 0.00 0.00 0.00 1013.8
20260505234939 10 126 3.2 6.4 0.00 0.00 0.00 1013.9
20260505234025 10 38 17.7 17.7 0.00 0.00 0.00 1013.9
20260505233130 10 61 25.7 25.7 0.00 0.00 0.00 1013.7
20260505232137 10 44 17.7 25.7 0.00 0.00 0.00 1014.2
20260505231230 10 341 29.0 40.2 0.00 0.00 0.00 1014.2
20260505230237 10 312 20.9 25.7 0.00 0.00 0.00 1014.0
20260505225412 10 39 14.5 25.7 0.00 0.00 0.00 1014.2
20260505224420 10 222 14.5 17.7 0.00 0.00 0.00 1014.0
20260505223546 10 352 14.5 17.7 0.00 0.00 0.00 1014.1
20260505222547 10 322 11.3 17.7 0.00 0.00 0.00 1014.1
20260505221546 10 18 25.7 32.2 0.00 0.00 0.00 1014.0
20260505220745 10 29 20.9 32.2 0.00 0.00 0.00 1014.1
20260505215936 10 336 14.5 17.7 0.00 0.00 0.00 1014.0
20260505215035 10 139 20.9 32.2 0.00 0.00 0.00 1014.3
20260505214116 10 306 20.9 25.7 0.00 0.00 0.00 1014.1
20260505213227 11 127 3.2 6.4 0.00 0.00 0.00 1014.2
20260505212316 11 297 14.5 17.7 0.00 0.00 0.00 1014.3
20260505211430 11 336 20.9 25.7 0.00 0.00 0.00 1014.2
20260505210507 11 277 20.9 25.7 0.00 0.00 0.00 1014.1
20260505205425 11 311 25.7 32.2 0.00 0.00 0.00 1014.4
20260505204502 11 292 17.7 17.7 0.00 0.00 0.00 1014.4
20260505203552 11 352 32.2 40.2 0.00 0.00 0.00 1014.4
20260505202542 11 57 20.9 32.2 0.00 0.00 0.00 1014.1
20260505201602 11 1 25.7 32.2 0.00 0.00 0.00 1014.4
20260505200642 11 289 17.7 32.2 0.00 0.00 0.00 1014.2
20260505195625 12 61 25.7 40.2 0.00 0.00 0.00 1013.9
20260505194715 12 2 17.7 25.7 0.00 0.00 0.00 1014.2
20260505193730 12 332 20.9 46.7 0.00 0.00 0.00 1014.2
20260505192802 12 305 17.7 25.7 0.00 0.00 0.00 1014.3
20260505191835 13 259 14.5 17.7 0.00 0.00 0.00 1014.3
20260505190841 13 1 25.7 32.2 0.00 0.00 0.00 1014.2
20260505185902 13 3 25.7 40.2 0.00 0.00 0.00 1014.4
20260505184915 14 321 17.7 25.7 0.00 0.00 0.00 1014.2
20260505184015 15 336 32.2 46.7 0.00 0.00 0.00 1014.1
20260505183031 15 270 25.7 40.2 0.00 0.00 0.00 1014.0
20260505182155 16 288 20.9 32.2 0.00 0.00 0.00 1013.8
20260505181226 16 7 29.0 32.2 0.00 0.00 0.00 1013.6
20260505180422 16 117 14.5 17.7 0.00 0.00 0.00 1013.4
20260505175454 16 307 29.0 40.2 0.00 0.00 0.00 1013.5
20260505174622 16 303 11.3 14.5 0.00 0.00 0.00 1013.4
20260505173812 17 317 17.7 17.7 0.00 0.00 0.00 1013.3
20260505172941 17 56 35.4 46.7 0.00 0.00 0.00 1013.2
20260505172025 17 66 17.7 25.7 0.00 0.00 0.00 1013.1
20260505171030 17 12 25.7 25.7 0.00 0.00 0.00 1013.0
20260505170031 18 295 20.9 32.2 0.00 0.00 0.00 1012.9
20260505165205 18 281 40.2 46.7 0.00 0.00 0.00 1012.8
20260505164247 19 89 17.7 17.7 0.00 0.00 0.00 1012.9
20260505163335 19 299 11.3 14.5 0.00 0.00 0.00 1012.9
20260505162322 20 319 20.9 32.2 0.00 0.00 0.00 1012.8
20260505161454 20 338 29.0 32.2 0.00 0.00 0.00 1012.8
20260505160612 20 339 20.9 32.2 0.00 0.00 0.00 1012.9
20260505152854 21 140 3.2 6.4 0.00 0.00 0.00 1013.2
20260505151942 21 0 20.9 32.2 0.00 0.00 0.00 1013.3
20260505151010 21 117 6.4 6.4 0.00 0.00 0.00 1013.3